Time,TemperatureF,DewpointF,PressureIn,WindDirection,WindDirectionDegrees,WindSpeedMPH,WindSpeedGustMPH,Humidity,HourlyPrecipIn,Conditions,Clouds,dailyrainin,SoftwareType,DateUTC
2013-07-10 00:11:00,70.5,67.1,29.83,WNW,292,0.0,-999.0,89,-99.99,,,0.00,Acu-Link.com,2013-07-10 04:11:00,
2013-07-10 00:26:00,70.0,66.6,29.82,West,270,2.2,-999.0,89,-99.99,,,0.00,Acu-Link.com,2013-07-10 04:26:00,
2013-07-10 00:41:00,69.8,66.7,29.82,ESE,112,0.0,-999.0,90,-99.99,,,0.00,Acu-Link.com,2013-07-10 04:41:00,
2013-07-10 00:56:00,69.8,66.7,29.82,West,270,0.0,-999.0,90,-99.99,,,0.00,Acu-Link.com,2013-07-10 04:56:00,
2013-07-10 01:11:00,69.4,66.3,29.81,WNW,292,0.0,-999.0,90,-99.99,,,0.00,Acu-Link.com,2013-07-10 05:11:00,
2013-07-10 01:26:00,69.1,66.0,29.80,WNW,292,0.0,-999.0,90,-99.99,,,0.00,Acu-Link.com,2013-07-10 05:26:00,
2013-07-10 01:41:00,69.1,66.0,29.80,WNW,292,0.0,-999.0,90,-99.99,,,0.00,Acu-Link.com,2013-07-10 05:41:00,
2013-07-10 01:57:00,69.1,66.0,29.80,East,90,0.0,-999.0,90,-99.99,,,0.00,Acu-Link.com,2013-07-10 05:57:00,
2013-07-10 02:12:00,68.9,65.8,29.80,WNW,292,0.0,-999.0,90,-99.99,,,0.00,Acu-Link.com,2013-07-10 06:12:00,
2013-07-10 02:27:00,69.1,66.0,29.80,WNW,292,0.0,-999.0,90,-99.99,,,0.00,Acu-Link.com,2013-07-10 06:27:00,
2013-07-10 02:42:00,69.1,66.0,29.79,WNW,292,0.0,-999.0,90,-99.99,,,0.00,Acu-Link.com,2013-07-10 06:42:00,
2013-07-10 02:57:00,69.1,66.0,29.79,West,270,0.0,-999.0,90,-99.99,,,0.00,Acu-Link.com,2013-07-10 06:57:00,
2013-07-10 03:12:00,69.1,66.4,29.78,North,0,0.0,-999.0,91,-99.99,,,0.00,Acu-Link.com,2013-07-10 07:12:00,
2013-07-10 03:27:00,69.3,66.6,29.78,WNW,292,0.0,-999.0,91,-99.99,,,0.00,Acu-Link.com,2013-07-10 07:27:00,
2013-07-10 03:42:00,69.6,66.9,29.78,NW,315,0.0,-999.0,91,-99.99,,,0.00,Acu-Link.com,2013-07-10 07:42:00,
2013-07-10 03:57:00,70.0,67.2,29.78,NNW,337,0.0,-999.0,91,-99.99,,,0.00,Acu-Link.com,2013-07-10 07:57:00,
2013-07-10 04:13:00,70.0,67.2,29.78,SW,225,1.1,-999.0,91,-99.99,,,0.00,Acu-Link.com,2013-07-10 08:13:00,
2013-07-10 04:28:00,70.2,67.4,29.78,NW,315,1.1,-999.0,91,-99.99,,,0.00,Acu-Link.com,2013-07-10 08:28:00,
2013-07-10 04:43:00,70.3,67.5,29.78,NNW,337,0.0,-999.0,91,-99.99,,,0.00,Acu-Link.com,2013-07-10 08:43:00,
2013-07-10 04:58:00,70.3,67.5,29.77,WNW,292,0.0,-999.0,91,-99.99,,,0.00,Acu-Link.com,2013-07-10 08:58:00,
2013-07-10 05:14:00,70.7,67.9,29.77,NW,315,3.2,-999.0,91,-99.99,,,0.00,Acu-Link.com,2013-07-10 09:14:00,
2013-07-10 05:29:00,70.9,68.1,29.76,West,270,2.7,-999.0,91,-99.99,,,0.00,Acu-Link.com,2013-07-10 09:29:00,
2013-07-10 05:44:00,71.1,68.3,29.77,West,270,1.1,-999.0,91,-99.99,,,0.00,Acu-Link.com,2013-07-10 09:44:00,
2013-07-10 05:59:00,71.1,68.3,29.78,West,270,2.7,-999.0,91,-99.99,,,0.00,Acu-Link.com,2013-07-10 09:59:00,
2013-07-10 06:14:00,71.2,68.4,29.78,WNW,292,2.2,-999.0,91,-99.99,,,0.00,Acu-Link.com,2013-07-10 10:14:00,
2013-07-10 06:29:00,71.6,68.2,29.77,West,270,0.0,-999.0,89,-99.99,,,0.00,Acu-Link.com,2013-07-10 10:29:00,
2013-07-10 06:44:00,72.0,68.6,29.76,West,270,1.7,-999.0,89,-99.99,,,0.00,Acu-Link.com,2013-07-10 10:44:00,
2013-07-10 06:59:00,72.3,68.5,29.76,West,270,3.2,-999.0,88,-99.99,,,0.00,Acu-Link.com,2013-07-10 10:59:00,
2013-07-10 07:15:00,72.7,68.6,29.76,WSW,247,1.1,-999.0,87,-99.99,,,0.00,Acu-Link.com,2013-07-10 11:15:00,
2013-07-10 07:30:00,72.9,68.8,29.77,West,270,2.2,-999.0,87,-99.99,,,0.00,Acu-Link.com,2013-07-10 11:30:00,
2013-07-10 07:45:00,73.2,68.8,29.77,NW,315,0.0,-999.0,86,-99.99,,,0.00,Acu-Link.com,2013-07-10 11:45:00,
2013-07-10 08:00:00,73.0,68.6,29.77,West,270,1.7,-999.0,86,-99.99,,,0.00,Acu-Link.com,2013-07-10 12:00:00,
2013-07-10 08:15:00,72.7,68.6,29.77,NNW,337,2.2,-999.0,87,-99.99,,,0.02,Acu-Link.com,2013-07-10 12:15:00,
2013-07-10 08:30:00,72.5,68.7,29.77,West,270,5.3,-999.0,88,-99.99,,,0.03,Acu-Link.com,2013-07-10 12:30:00,
2013-07-10 08:45:00,72.3,68.5,29.77,West,270,4.7,-999.0,88,-99.99,,,0.04,Acu-Link.com,2013-07-10 12:45:00,
2013-07-10 09:00:00,72.5,68.7,29.78,NW,315,7.8,-999.0,88,-99.99,,,0.05,Acu-Link.com,2013-07-10 13:00:00,
2013-07-10 09:15:00,72.5,68.7,29.77,West,270,4.7,-999.0,88,-99.99,,,0.05,Acu-Link.com,2013-07-10 13:15:00,
2013-07-10 09:31:00,72.7,68.9,29.77,WSW,247,1.7,-999.0,88,-99.99,,,0.05,Acu-Link.com,2013-07-10 13:31:00,
2013-07-10 09:46:00,72.9,69.1,29.77,SE,135,1.7,-999.0,88,-99.99,,,0.06,Acu-Link.com,2013-07-10 13:46:00,
2013-07-10 10:01:00,73.8,69.7,29.76,WNW,292,2.7,-999.0,87,-99.99,,,0.06,Acu-Link.com,2013-07-10 14:01:00,
2013-07-10 10:16:00,73.8,69.3,29.76,West,270,1.7,-999.0,86,-99.99,,,0.06,Acu-Link.com,2013-07-10 14:16:00,
2013-07-10 10:31:00,74.8,69.6,29.76,West,270,4.2,-999.0,84,-99.99,,,0.06,Acu-Link.com,2013-07-10 14:31:00,
2013-07-10 10:46:00,74.5,69.3,29.76,SW,225,1.7,-999.0,84,-99.99,,,0.06,Acu-Link.com,2013-07-10 14:46:00,
2013-07-10 11:01:00,75.6,70.4,29.75,South,180,2.7,-999.0,84,-99.99,,,0.06,Acu-Link.com,2013-07-10 15:01:00,
2013-07-10 11:16:00,76.8,70.5,29.74,SSW,202,2.2,-999.0,81,-99.99,,,0.06,Acu-Link.com,2013-07-10 15:16:00,
2013-07-10 11:32:00,77.5,70.5,29.74,West,270,3.7,-999.0,79,-99.99,,,0.06,Acu-Link.com,2013-07-10 15:32:00,
2013-07-10 11:47:00,78.8,71.0,29.73,SSW,202,2.2,-999.0,77,-99.99,,,0.06,Acu-Link.com,2013-07-10 15:47:00,
2013-07-10 12:02:00,77.4,70.4,29.75,West,270,4.2,-999.0,79,-99.99,,,0.06,Acu-Link.com,2013-07-10 16:02:00,
2013-07-10 12:17:00,80.1,70.6,29.76,SSW,202,3.2,-999.0,73,-99.99,,,0.06,Acu-Link.com,2013-07-10 16:17:00,
2013-07-10 12:32:00,80.8,73.3,29.75,SW,225,1.7,-999.0,78,-99.99,,,0.06,Acu-Link.com,2013-07-10 16:32:00,
2013-07-10 12:47:00,80.2,73.1,29.75,ESE,112,3.2,-999.0,79,-99.99,,,0.06,Acu-Link.com,2013-07-10 16:47:00,
2013-07-10 13:02:00,81.9,73.2,29.75,NW,315,5.8,-999.0,75,-99.99,,,0.06,Acu-Link.com,2013-07-10 17:02:00,
2013-07-10 13:17:00,82.9,73.7,29.74,SSW,202,3.2,-999.0,74,-99.99,,,0.06,Acu-Link.com,2013-07-10 17:17:00,
2013-07-10 13:33:00,82.9,73.7,29.73,South,180,5.8,-999.0,74,-99.99,,,0.06,Acu-Link.com,2013-07-10 17:33:00,
2013-07-10 13:48:00,82.8,73.2,29.72,South,180,3.7,-999.0,73,-99.99,,,0.06,Acu-Link.com,2013-07-10 17:48:00,
2013-07-10 14:03:00,83.1,73.5,29.71,SSW,202,9.4,-999.0,73,-99.99,,,0.06,Acu-Link.com,2013-07-10 18:03:00,
2013-07-10 14:18:00,84.7,73.8,29.71,South,180,2.7,-999.0,70,-99.99,,,0.06,Acu-Link.com,2013-07-10 18:18:00,
2013-07-10 14:33:00,84.7,73.8,29.71,South,180,6.8,-999.0,70,-99.99,,,0.06,Acu-Link.com,2013-07-10 18:33:00,
2013-07-10 14:48:00,85.3,73.5,29.71,SSW,202,4.7,-999.0,68,-99.99,,,0.06,Acu-Link.com,2013-07-10 18:48:00,
2013-07-10 15:03:00,86.4,73.7,29.70,NW,315,1.7,-999.0,66,-99.99,,,0.06,Acu-Link.com,2013-07-10 19:03:00,
2013-07-10 15:18:00,86.5,74.2,29.70,SSW,202,3.2,-999.0,67,-99.99,,,0.06,Acu-Link.com,2013-07-10 19:18:00,
2013-07-10 15:33:00,86.2,73.9,29.69,SSW,202,3.7,-999.0,67,-99.99,,,0.06,Acu-Link.com,2013-07-10 19:33:00,
2013-07-10 15:49:00,84.7,72.9,29.69,SSW,202,3.7,-999.0,68,-99.99,,,0.06,Acu-Link.com,2013-07-10 19:49:00,
2013-07-10 16:04:00,86.2,73.0,29.68,SW,225,5.8,-999.0,65,-99.99,,,0.06,Acu-Link.com,2013-07-10 20:04:00,
2013-07-10 16:19:00,86.9,73.7,29.67,SSE,157,2.7,-999.0,65,-99.99,,,0.06,Acu-Link.com,2013-07-10 20:19:00,
2013-07-10 16:34:00,86.0,72.8,29.67,SSW,202,2.7,-999.0,65,-99.99,,,0.06,Acu-Link.com,2013-07-10 20:34:00,
2013-07-10 16:49:00,86.0,72.8,29.67,South,180,2.7,-999.0,65,-99.99,,,0.06,Acu-Link.com,2013-07-10 20:49:00,
2013-07-10 17:04:00,85.1,72.4,29.68,SE,135,3.2,-999.0,66,-99.99,,,0.06,Acu-Link.com,2013-07-10 21:04:00,
2013-07-10 17:19:00,86.7,73.5,29.67,WSW,247,1.1,-999.0,65,-99.99,,,0.06,Acu-Link.com,2013-07-10 21:19:00,
2013-07-10 17:35:00,87.1,73.9,29.66,SW,225,1.7,-999.0,65,-99.99,,,0.06,Acu-Link.com,2013-07-10 21:35:00,
2013-07-10 17:50:00,86.2,73.9,29.67,SSW,202,2.2,-999.0,67,-99.99,,,0.06,Acu-Link.com,2013-07-10 21:50:00,
2013-07-10 18:05:00,86.0,73.3,29.67,WNW,292,1.1,-999.0,66,-99.99,,,0.06,Acu-Link.com,2013-07-10 22:05:00,
2013-07-10 18:20:00,85.6,73.8,29.67,ESE,112,2.2,-999.0,68,-99.99,,,0.06,Acu-Link.com,2013-07-10 22:20:00,
2013-07-10 18:35:00,86.0,74.6,29.67,West,270,3.2,-999.0,69,-99.99,,,0.06,Acu-Link.com,2013-07-10 22:35:00,
2013-07-10 18:50:00,85.5,74.6,29.67,WNW,292,3.2,-999.0,70,-99.99,,,0.06,Acu-Link.com,2013-07-10 22:50:00,
2013-07-10 19:05:00,84.6,75.0,29.66,NW,315,2.2,-999.0,73,-99.99,,,0.06,Acu-Link.com,2013-07-10 23:05:00,
2013-07-10 19:20:00,82.9,74.5,29.67,WNW,292,2.7,-999.0,76,-99.99,,,0.06,Acu-Link.com,2013-07-10 23:20:00,
2013-07-10 19:35:00,82.2,74.3,29.66,WNW,292,3.2,-999.0,77,-99.99,,,0.06,Acu-Link.com,2013-07-10 23:35:00,
2013-07-10 19:51:00,81.3,74.1,29.67,WNW,292,3.2,-999.0,79,-99.99,,,0.06,Acu-Link.com,2013-07-10 23:51:00,
2013-07-10 20:06:00,80.6,74.2,29.68,NNW,337,4.2,-999.0,81,-99.99,,,0.06,Acu-Link.com,2013-07-11 00:06:00,
2013-07-10 20:21:00,77.7,65.9,29.76,NW,315,13.0,-999.0,67,-99.99,,,0.06,Acu-Link.com,2013-07-11 00:21:00,
2013-07-10 20:36:00,69.4,64.0,29.76,SE,135,4.2,-999.0,83,-99.99,,,0.13,Acu-Link.com,2013-07-11 00:36:00,
2013-07-10 20:51:00,68.9,63.9,29.77,WNW,292,2.2,-999.0,84,-99.99,,,0.20,Acu-Link.com,2013-07-11 00:51:00,
2013-07-10 21:06:00,68.7,64.3,29.75,South,180,0.0,-999.0,86,-99.99,,,0.28,Acu-Link.com,2013-07-11 01:06:00,
2013-07-10 21:22:00,68.7,64.3,29.74,NW,315,0.0,-999.0,86,-99.99,,,0.30,Acu-Link.com,2013-07-11 01:22:00,
2013-07-10 21:37:00,68.4,64.4,29.75,East,90,0.0,-999.0,87,-99.99,,,0.30,Acu-Link.com,2013-07-11 01:37:00,
2013-07-10 21:52:00,68.2,64.2,29.75,SSW,202,1.1,-999.0,87,-99.99,,,0.32,Acu-Link.com,2013-07-11 01:52:00,
2013-07-10 22:07:00,68.4,64.4,29.74,West,270,0.0,-999.0,87,-99.99,,,0.35,Acu-Link.com,2013-07-11 02:07:00,
2013-07-10 22:22:00,67.8,64.1,29.74,WNW,292,3.2,-999.0,88,-99.99,,,0.35,Acu-Link.com,2013-07-11 02:22:00,
2013-07-10 22:37:00,67.8,64.1,29.72,East,90,0.0,-999.0,88,-99.99,,,0.35,Acu-Link.com,2013-07-11 02:37:00,
2013-07-10 22:52:00,67.5,64.1,29.72,NW,315,4.2,-999.0,89,-99.99,,,0.36,Acu-Link.com,2013-07-11 02:52:00,
2013-07-10 23:07:00,67.3,63.9,29.71,NW,315,0.0,-999.0,89,-99.99,,,0.36,Acu-Link.com,2013-07-11 03:07:00,
2013-07-10 23:22:00,67.3,63.9,29.71,West,270,1.1,-999.0,89,-99.99,,,0.36,Acu-Link.com,2013-07-11 03:22:00,
2013-07-10 23:38:00,67.3,63.9,29.71,NE,45,1.1,-999.0,89,-99.99,,,0.36,Acu-Link.com,2013-07-11 03:38:00,
2013-07-10 23:53:00,67.3,64.3,29.70,North,0,0.0,-999.0,90,-99.99,,,0.36,Acu-Link.com,2013-07-11 03:53:00,